Tracking 32412 objects as of 6-Dec-2025
HD Live streaming from Space Station
objects crossing your sky now

STARLINK-34515

Track STARLINK-34515 now!
10-day predictions
STARLINK-34515 is classified as:


NORAD ID: 64712
Int'l Code: 2025-142S
Perigee: 584.6 km
Apogee: 588.7 km
Inclination: 70.0 °
Period: 96.3 minutes
Semi major axis: 6957 km
RCS: Unknown
Launch date: June 28, 2025
Source: United States (US)
Launch site: AIR FORCE WESTERN TEST RANGE (AFWTR)
Your satellite tracking list
Your tracking list is empty




NASA's NSSDC Master Catalog

Two Line Element Set (TLE):
1 64712U 25142S   25339.91769407  .00006573  00000-0  59380-3 0  9998
2 64712  69.9995 190.5019 0002921 271.7628  88.3195 14.95912250 25426
Source of the keplerian elements: AFSPC